Wind_Speed
16 13 14 12 11 9 6 3 1 2 2 2 2 1 1 2 2 3 6 6 5 5 6 9 12 8 5 4 7 6 5 3 1 1 3 7 18 20 16 21 23 21 20 19 18 18 18 18 17 17 18 18 18 18 18 18 19 19 19 19 19 19 18 18 18 17 16 16 16 16 16 15 15 15 14 15 15 13 13 13 12 12 11 12 11 11 11 11 11 11 10 11 12 12 12 12 12
16 13 13 11 10 7 3 2 1 1 1 1 1 1 1 3 4 4 6 7 5 7 9 11 10 6 6 8 9 7 7 6 4 4 6 18 23 15 19 24 23 21 21 19 18 18 18 18 18 18 17 17 18 18 18 18 19 19 19 18 18 18 18 18 18 17 17 16 16 15 15 15 15 15 14 14 14 13 12 13 12 11 11 11 12 11 11 11 11 11 11 11 11 11 11 11 11
15 13 14 11 7 4 0 2 2 0 1 1 0 1 2 3 4 5 6 7 8 11 12 12 9 6 7 10 5 3 5 5 6 8 10 23 21 16 24 25 24 22 20 20 18 18 18 18 18 18 17 17 18 18 18 18 19 18 18 18 18 18 18 18 18 17 17 16 15 15 15 15 15 14 14 14 13 12 11 12 12 11 11 11 11 11 11 11 11 11 11 12 11 11 11 11 11
14 13 14 10 4 3 1 2 1 0 1 1 1 1 2 3 6 7 7 9 11 13 13 11 7 3 3 8 4 4 6 4 8 11 13 19 19 22 26 26 26 22 19 20 18 18 18 18 19 18 18 17 18 18 18 18 18 18 18 17 18 18 17 17 17 17 16 15 15 15 15 15 15 14 14 13 12 11 11 12 11 11 11 11 11 11 11 11 11 11 11 11 11 10 11 10 10
14 11 12 7 2 1 1 1 0 1 1 0 1 1 2 4 8 9 9 10 11 13 12 9 6 3 4 6 2 2 6 7 10 14 16 18 21 25 26 27 26 21 20 20 19 18 18 19 19 18 18 17 18 18 18 18 17 17 17 17 17 17 16 16 16 16 16 15 14 15 14 14 14 13 13 13 12 11 11 11 11 11 11 10 10 11 11 11 11 11 11 10 10 10 10 10 9
13 9 9 6 3 1 1 1 1 2 1 1 1 1 3 6 9 11 12 11 10 11 11 7 6 7 6 6 3 3 5 7 11 15 19 21 24 26 25 27 25 22 21 20 19 18 18 19 18 18 17 17 17 17 17 17 17 17 17 16 16 16 15 15 15 16 15 14 14 14 14 14 14 13 12 12 11 11 11 11 11 11 10 10 10 10 11 11 11 10 10 10 10 10 10 10 10
13 8 4 4 2 2 2 1 2 2 0 2 2 1 5 8 9 12 13 11 10 8 6 6 9 9 6 3 4 5 3 5 12 16 20 24 27 27 26 26 24 22 21 21 20 18 19 19 18 18 17 17 17 17 17 17 17 17 16 16 15 15 15 15 15 15 14 14 14 14 14 14 14 13 13 12 12 11 11 12 12 11 11 10 9 10 10 10 10 10 10 10 9 10 10 9 10
11 5 2 3 1 1 2 2 2 1 1 1 1 2 7 10 10 11 13 11 10 8 7 9 8 7 5 3 4 4 3 6 13 18 23 27 29 28 26 25 24 23 22 22 20 18 19 18 18 17 17 17 17 16 16 16 16 16 16 16 15 15 15 15 14 14 14 14 14 14 14 14 14 14 13 13 14 13 12 13 12 12 11 10 9 9 10 10 10 10 11 10 9 9 10 10 10
8 3 2 2 1 1 2 2 1 2 2 1 1 4 8 10 10 10 12 10 9 10 9 9 5 4 7 5 5 4 4 10 17 21 25 28 30 29 26 25 24 23 23 22 20 18 18 18 17 16 16 16 16 16 15 16 16 16 15 15 15 15 15 15 14 14 14 14 14 14 13 14 14 14 14 14 14 14 14 13 12 12 11 11 10 10 10 10 10 10 11 10 9 8 9 9 10
5 3 2 1 1 2 2 1 0 1 1 1 2 7 9 9 9 9 10 11 10 9 8 6 4 7 9 7 5 4 7 14 20 23 25 27 29 28 26 25 24 24 22 22 20 19 18 18 17 16 16 16 15 14 15 16 16 16 15 15 15 15 15 14 14 14 14 14 13 13 13 13 14 13 13 13 13 13 13 13 12 12 11 11 11 10 10 10 10 10 10 10 8 8 8 9 9
3 2 2 2 1 2 1 1 2 0 1 2 4 6 8 9 9 8 9 10 9 9 8 6 7 11 10 6 4 5 12 18 22 25 26 27 27 26 25 25 24 23 22 21 21 19 18 18 17 16 16 16 15 14 15 16 16 16 16 16 15 15 15 14 14 14 14 14 14 13 13 13 13 13 13 13 12 12 12 12 11 11 10 10 11 10 10 10 10 9 9 9 8 8 8 8 9
1 2 2 2 2 1 2 3 3 1 2 3 6 6 7 9 9 9 11 10 8 9 7 6 8 9 9 6 4 8 16 19 22 26 27 26 25 25 25 24 23 22 21 21 20 20 18 17 17 16 16 16 14 13 14 15 15 16 16 15 15 15 14 14 13 14 14 14 14 13 12 12 13 13 13 13 12 12 11 11 10 10 10 10 10 10 10 10 10 9 8 9 8 7 8 8 9
1 1 0 1 2 2 3 3 2 1 3 4 6 6 8 9 8 9 10 9 9 8 6 7 10 7 6 6 6 10 15 20 23 26 26 25 25 24 23 23 23 22 20 20 20 20 18 17 17 17 16 16 15 13 13 15 15 15 16 15 14 14 14 14 13 13 13 13 13 12 12 12 12 12 12 12 12 12 11 10 9 10 10 9 10 10 10 10 10 9 8 8 7 7 7 7 8
2 1 1 1 2 3 4 2 1 2 3 5 5 7 9 6 5 8 9 10 8 6 7 10 11 7 6 7 6 9 14 22 25 26 26 24 23 23 23 23 22 22 20 19 20 20 19 17 17 17 17 16 15 14 13 14 14 15 14 14 14 14 14 14 13 13 12 13 13 12 12 12 12 12 12 11 11 11 10 10 9 9 10 9 9 10 10 11 11 10 9 7 7 7 8 8 9
2 1 1 2 3 3 3 2 1 2 4 7 7 8 8 3 5 9 8 9 5 6 10 9 9 5 6 9 8 11 19 26 27 26 25 23 23 22 23 22 22 22 19 19 20 20 19 17 17 17 17 16 16 15 14 13 13 14 14 14 13 13 13 13 13 12 12 12 12 11 11 11 11 11 11 10 10 10 10 10 9 9 9 9 9 9 9 10 11 10 9 9 8 8 9 9 9
2 1 1 2 3 2 2 2 1 2 4 7 8 9 9 4 5 6 5 6 7 9 8 7 7 1 6 11 10 18 25 28 28 26 26 23 22 21 21 21 21 20 19 20 20 20 19 17 17 17 17 16 16 15 15 14 13 13 13 13 13 12 12 12 12 11 11 11 11 10 10 10 10 10 10 10 10 9 9 9 8 8 9 8 8 8 8 9 10 9 9 9 9 8 8 8 6
1 1 2 2 3 2 1 3 1 1 4 8 10 11 10 7 4 3 4 7 10 10 5 5 5 1 5 10 16 26 29 29 28 27 26 25 23 22 21 20 21 19 19 21 20 20 19 18 18 17 17 17 16 16 15 14 13 13 13 13 12 12 12 12 12 11 10 10 9 9 9 9 10 9 9 9 9 8 8 8 7 7 7 7 7 7 7 8 8 7 8 7 8 7 6 6 5
3 2 3 3 3 2 1 1 1 2 3 9 11 12 11 10 8 6 7 8 10 10 5 7 6 6 9 15 23 29 29 30 29 28 27 25 23 22 21 21 21 20 19 20 20 20 19 18 18 17 17 17 16 16 15 15 14 13 12 12 12 11 11 11 11 10 9 9 9 8 8 8 9 8 8 8 8 7 7 7 6 6 6 6 6 6 6 6 6 6 6 6 6 6 5 5 4
5 4 3 4 3 1 1 1 3 4 1 7 10 10 9 10 10 8 8 9 11 10 7 8 10 11 14 20 27 29 29 30 28 29 28 26 24 23 23 22 22 21 19 19 20 21 20 18 17 17 17 17 17 16 16 15 14 14 12 12 11 11 11 10 10 9 9 8 8 8 8 8 8 8 8 8 7 7 6 6 6 5 5 5 5 5 4 4 5 5 5 5 5 5 5 4 3
6 5 5 5 4 3 2 4 5 5 2 8 11 9 7 9 10 8 8 11 12 10 9 10 11 14 16 21 26 29 29 28 28 28 27 26 25 23 23 22 23 23 21 19 19 20 20 18 17 16 16 17 16 15 16 14 14 14 13 12 12 11 10 10 10 9 8 7 7 7 7 7 7 7 7 7 6 6 5 4 5 5 4 4 4 4 4 4 4 4 4 5 5 5 5 4 4
5 6 5 1 1 3 1 3 3 2 3 7 10 9 8 9 9 8 10 11 9 10 12 13 15 18 20 21 25 28 28 27 28 27 26 26 24 23 22 22 22 22 21 19 18 19 19 18 17 16 15 17 15 14 15 14 15 14 13 13 11 10 9 10 9 9 8 7 7 6 6 6 6 6 5 5 5 5 4 4 3 4 4 3 3 3 3 4 4 3 4 4 4 4 4 4 5
5 8 8 4 2 2 1 2 4 4 1 5 9 9 8 8 8 10 13 11 6 8 12 14 17 20 22 23 24 26 26 26 27 27 26 26 25 24 22 21 21 22 21 20 19 19 19 19 18 17 16 16 15 13 13 14 14 12 11 11 10 9 8 8 8 8 8 7 6 5 5 5 5 5 5 5 5 5 4 4 3 3 3 3 3 3 3 3 3 3 3 3 3 3 3 3 4
6 7 9 9 7 6 5 2 4 6 1 5 8 8 8 9 9 10 14 10 2 6 12 15 17 21 24 25 24 24 24 25 26 28 27 27 26 25 24 22 22 24 22 20 20 20 20 19 18 18 17 16 15 13 13 13 12 11 10 10 9 9 8 8 8 8 8 7 6 5 5 4 4 4 4 4 4 4 4 3 3 3 3 2 3 3 3 3 3 2 2 2 2 3 3 3 3
8 8 8 9 8 10 9 7 7 6 4 5 6 7 9 13 9 9 15 9 4 10 14 17 18 21 24 23 23 23 24 24 26 28 26 25 25 24 24 22 22 23 22 21 21 20 20 20 19 20 19 16 15 14 13 12 12 11 10 10 9 9 8 7 8 8 8 8 7 6 5 4 4 4 4 4 3 4 3 3 3 2 2 2 3 3 3 3 3 3 3 2 2 3 3 2 2
12 10 6 6 7 8 9 7 8 7 6 5 7 9 12 13 7 8 14 7 8 14 16 18 18 20 21 21 22 21 22 24 25 26 25 24 23 23 22 21 22 23 23 22 21 20 21 20 19 20 20 18 15 14 14 13 12 11 11 10 9 9 9 7 8 8 8 8 7 7 6 4 4 3 3 3 3 3 2 2 2 1 2 2 2 3 3 2 3 3 3 3 3 3 3 2 2
12 13 6 5 6 7 7 8 8 7 4 4 9 10 11 11 5 6 12 9 12 16 17 19 19 19 19 19 21 21 21 23 25 26 25 24 24 23 23 23 23 23 22 22 21 21 21 20 20 19 21 20 16 15 15 13 12 12 11 10 9 9 8 7 7 7 8 9 8 7 6 5 4 3 3 3 3 2 1 1 1 1 2 2 2 3 3 2 3 3 3 4 4 3 3 2 2
5 10 10 11 11 10 10 11 11 9 5 7 9 9 10 11 7 7 9 13 15 17 18 19 19 19 19 18 19 19 20 23 25 25 24 24 25 24 24 23 23 23 22 22 22 22 21 21 21 20 20 21 19 17 17 15 12 12 11 10 9 9 8 7 7 7 9 10 9 8 6 5 5 3 3 3 2 1 0 1 2 2 2 2 2 3 3 3 3 4 4 4 5 3 2 2 2
3 5 7 10 11 12 12 12 11 7 5 8 10 8 7 10 10 9 10 16 16 17 18 19 19 18 18 19 18 16 17 22 24 24 25 26 26 25 25 25 25 24 23 23 22 21 22 22 22 21 19 20 21 21 20 18 15 12 11 10 10 9 9 8 9 9 10 11 10 9 7 6 5 4 4 2 2 1 1 2 3 2 2 2 2 3 2 3 3 4 4 4 5 3 2 2 2
7 6 7 7 8 11 12 11 9 6 5 7 7 6 6 10 13 10 12 16 16 17 17 18 18 16 17 17 16 14 16 21 22 23 25 26 25 25 26 25 25 25 23 23 22 21 22 22 21 21 20 19 20 23 24 23 20 16 12 11 10 9 10 11 12 12 12 11 10 9 8 7 6 5 4 3 2 2 2 3 3 3 3 2 3 2 2 3 3 4 4 4 5 3 3 2 2
8 7 7 6 7 8 7 7 8 8 6 7 7 4 5 11 14 11 14 17 17 16 16 16 15 14 15 15 14 14 16 20 22 23 25 24 24 25 25 25 24 23 22 22 23 23 22 21 21 21 21 20 19 22 26 26 24 22 17 13 10 10 13 15 14 13 12 10 10 9 8 7 6 5 4 4 3 3 3 4 4 4 3 3 3 3 3 4 4 5 5 5 5 3 4 3 2
6 5 5 5 5 5 2 3 8 9 6 10 10 5 6 9 11 13 15 18 18 16 16 16 15 14 14 15 15 15 17 20 23 25 25 24 23 23 24 24 24 23 21 23 24 24 23 22 21 20 22 21 19 20 24 27 27 25 23 18 14 12 14 17 15 14 13 11 10 9 8 8 7 7 6 5 4 5 5 5 5 4 4 3 3 3 4 5 5 5 6 7 6 4 5 4 2
5 5 5 6 5 7 4 3 8 8 4 12 12 5 6 7 8 15 15 18 20 16 17 16 16 16 15 15 15 15 16 20 24 25 25 24 23 22 24 25 25 24 23 24 24 24 24 23 22 21 21 22 20 18 20 25 27 26 26 24 20 17 17 18 16 15 14 13 12 10 9 9 8 8 7 6 6 6 6 6 5 5 5 4 4 3 3 5 7 7 7 7 6 5 5 3 2
5 6 6 6 7 9 6 3 8 9 4 11 13 6 4 3 6 15 16 19 20 16 16 17 17 17 16 15 14 14 15 17 21 24 26 25 24 23 24 24 25 25 24 24 25 25 25 24 23 21 21 22 21 18 17 20 26 27 26 26 24 22 20 19 18 16 15 14 13 11 10 10 9 8 7 7 7 6 6 6 6 5 5 5 5 3 3 4 6 8 8 6 5 5 3 2 2
5 6 5 5 8 9 6 2 5 10 8 9 13 10 8 2 5 13 16 19 19 16 17 18 17 16 15 14 14 15 16 16 18 23 27 26 25 24 23 23 24 24 24 24 25 26 26 25 24 23 22 22 20 18 16 16 23 27 25 25 25 24 23 21 20 18 17 16 14 13 11 11 10 9 8 7 8 7 6 5 5 5 5 5 4 3 4 3 3 5 6 4 3 3 2 2 2
7 7 6 6 7 9 8 4 2 7 10 10 12 12 12 6 5 11 15 18 18 17 16 17 17 16 15 15 15 16 17 18 18 24 29 27 26 25 24 23 24 24 24 24 24 25 26 24 24 24 22 22 20 18 16 15 20 26 25 24 25 24 24 23 22 21 19 18 16 14 13 12 11 9 8 9 9 8 6 5 5 5 5 5 4 4 4 4 4 4 3 3 3 2 3 3 3
6 8 6 7 8 8 8 5 1 3 7 10 11 12 12 10 7 10 13 16 17 16 14 14 14 15 14 14 14 16 17 18 20 25 29 28 26 26 25 24 24 24 24 24 24 24 25 25 24 24 23 23 21 18 17 16 18 22 22 22 23 24 25 24 24 23 21 20 18 15 14 13 12 10 9 10 10 10 7 5 5 6 5 4 4 5 4 4 5 5 3 3 3 3 4 3 3
2 5 7 8 9 9 6 5 3 3 5 8 10 11 12 12 10 11 13 14 15 14 14 13 14 14 15 16 16 17 18 16 19 24 26 27 27 26 26 24 24 24 24 24 25 25 26 26 26 26 25 23 23 21 21 19 18 19 20 21 20 21 24 24 23 23 22 21 19 16 15 15 13 11 10 10 11 11 9 7 7 7 6 5 5 5 5 4 6 6 4 3 3 3 4 4 1
6 3 6 7 9 9 6 3 2 3 5 7 8 10 13 13 11 11 12 13 15 16 16 15 17 16 14 17 18 17 14 13 17 20 24 26 26 26 26 25 25 26 26 26 27 27 28 28 27 27 26 25 25 24 24 23 22 23 23 23 21 18 21 24 21 21 22 21 20 18 16 16 14 13 11 11 12 12 11 9 8 9 8 7 7 6 5 5 6 6 4 2 2 2 3 3 1
11 5 5 5 5 6 7 6 4 4 5 5 6 9 12 11 10 11 13 15 15 17 18 18 19 18 16 18 18 16 15 15 17 19 23 27 27 27 27 25 26 27 27 27 28 28 27 28 27 27 27 27 26 26 27 27 27 28 28 26 24 19 19 23 20 20 22 21 21 19 18 17 15 14 13 12 12 12 13 12 11 10 10 9 8 7 6 6 6 5 4 2 2 2 3 2 3
12 9 7 5 3 3 6 4 2 5 7 6 5 7 10 7 6 9 14 16 14 15 17 16 16 18 18 18 17 17 19 18 19 20 21 25 28 29 28 27 27 27 28 28 28 28 28 28 28 28 29 28 28 27 27 28 26 28 29 26 25 20 17 20 20 20 21 21 21 21 20 19 17 15 14 13 13 13 14 14 13 12 12 11 10 9 8 7 6 6 5 4 3 3 2 2 4
12 14 11 8 5 5 4 2 4 4 7 7 6 7 9 7 7 8 11 14 13 12 14 13 13 14 13 14 15 17 18 19 20 21 21 23 27 30 31 30 28 28 29 29 29 29 28 29 30 31 31 30 31 30 26 25 23 23 23 21 19 17 15 15 16 17 20 22 22 21 21 20 18 16 15 14 13 14 15 15 15 13 12 13 12 11 10 8 7 6 6 5 4 4 2 2 5
11 15 16 12 8 7 7 7 6 4 5 5 5 9 8 6 10 10 8 11 13 12 13 16 15 13 12 13 15 17 17 17 18 20 21 22 25 28 31 32 30 30 30 31 30 29 28 28 30 31 31 31 32 32 30 26 22 20 20 18 16 15 14 14 17 18 19 23 22 20 22 21 19 18 16 15 14 15 15 15 15 14 13 13 14 14 12 10 8 7 6 5 5 5 3 3 5
9 11 16 16 12 9 10 9 5 4 4 1 2 8 7 5 9 10 8 12 15 14 15 18 15 14 15 14 15 16 17 17 17 18 19 21 24 27 29 32 32 31 30 30 29 29 29 28 30 31 31 30 30 32 32 27 23 22 22 21 19 18 17 17 20 20 19 23 22 21 23 22 21 19 18 16 15 15 16 15 15 15 14 13 13 15 14 12 10 8 7 6 6 5 4 5 5
8 6 12 15 14 13 12 10 7 6 5 6 6 6 6 7 6 5 8 12 14 14 16 17 14 15 18 17 16 17 18 18 17 18 19 21 25 28 29 31 32 30 29 28 28 29 30 29 31 33 31 30 29 31 32 28 26 26 24 22 20 19 20 18 21 22 20 22 23 23 24 23 22 21 20 18 16 16 16 16 16 15 14 13 13 14 14 13 11 9 8 7 7 6 5 6 6
7 6 9 12 13 14 12 9 8 6 5 8 8 5 5 9 5 2 6 11 12 14 17 16 15 17 18 18 19 19 18 18 18 19 20 21 25 30 31 31 31 30 29 29 29 29 29 30 32 33 32 31 30 32 33 31 31 30 26 24 21 20 21 18 19 21 21 22 23 23 24 24 23 22 22 21 19 17 17 16 16 16 15 14 13 14 14 14 13 11 9 8 8 7 5 6 7
4 7 9 10 11 11 10 9 8 7 8 10 10 7 6 9 7 5 6 8 10 12 14 14 15 17 17 17 18 18 16 16 17 18 19 22 27 30 31 30 30 31 30 29 29 28 28 29 31 32 32 31 30 32 35 34 34 32 28 25 23 21 21 18 17 18 21 23 23 23 25 25 24 23 23 22 21 20 18 17 18 17 17 15 14 13 14 15 15 13 11 9 8 7 6 6 7
6 8 8 7 8 8 7 7 5 7 10 12 13 11 8 9 9 8 7 6 8 9 10 11 14 16 16 16 16 16 16 15 16 17 18 21 26 28 28 29 31 31 29 29 29 29 28 29 30 32 32 31 30 32 35 35 34 32 29 28 27 24 22 19 19 19 20 23 22 23 24 25 25 24 24 24 23 22 21 19 18 18 18 17 16 14 14 14 14 14 13 10 9 8 7 7 8
9 8 8 5 5 5 6 5 5 9 11 10 13 13 11 12 10 7 7 7 8 9 10 11 15 17 16 16 16 17 17 17 17 16 17 19 22 25 28 29 30 31 29 29 30 29 29 29 30 31 31 32 31 32 34 33 32 31 30 30 30 26 23 22 23 22 23 24 23 22 24 25 25 25 25 25 24 24 23 21 20 20 20 19 18 16 14 13 13 14 14 12 10 9 8 8 8
11 10 9 8 5 5 7 7 7 11 9 5 9 11 12 12 10 7 7 8 10 10 9 11 14 16 16 16 16 16 16 16 17 16 16 18 18 20 26 29 30 31 30 30 31 30 29 29 31 31 32 33 32 32 33 33 32 32 31 31 31 28 25 25 26 25 26 27 25 23 24 25 25 26 26 27 26 24 24 23 21 21 20 19 18 17 15 14 13 14 15 14 13 11 10 9 9
12 11 10 9 8 7 9 9 7 9 7 3 6 7 9 9 8 11 13 14 14 11 9 10 12 14 15 15 16 15 16 16 16 16 16 17 18 20 25 29 30 31 31 32 32 31 30 30 32 33 32 33 34 32 33 33 33 33 33 32 31 29 27 27 27 26 27 29 28 27 27 26 26 28 28 28 28 25 25 25 23 22 21 20 18 18 17 15 13 13 13 13 14 13 11 10 10
11 12 10 10 9 8 8 7 7 7 5 5 9 6 7 5 2 5 12 16 16 13 12 12 12 13 12 12 13 15 16 16 16 17 18 18 19 22 26 27 29 31 33 33 32 32 31 30 33 34 32 33 35 33 33 33 34 34 34 33 31 30 30 28 28 27 27 30 31 30 29 28 27 29 30 30 29 27 26 25 24 23 22 21 19 18 17 16 15 12 11 11 12 12 10 10 10
10 11 11 11 9 8 5 4 5 4 6 6 9 6 5 1 4 4 6 10 13 13 14 15 15 12 10 10 12 15 15 16 16 17 19 19 20 23 26 27 28 31 33 34 33 32 32 30 32 35 34 34 35 34 34 34 34 32 33 33 32 31 31 28 28 30 31 31 32 32 32 31 30 29 30 30 29 27 26 26 25 24 23 22 20 19 19 17 16 13 10 9 11 11 11 10 11
7 10 12 9 8 9 7 5 1 2 8 6 6 8 7 3 8 9 7 6 9 12 13 15 16 13 12 11 12 14 15 16 18 18 19 20 20 24 28 29 30 31 33 34 34 33 34 32 32 35 33 33 35 35 35 35 34 32 32 34 32 31 32 30 29 32 31 29 31 33 31 31 31 30 30 29 28 28 27 26 25 25 24 23 21 21 20 19 18 15 11 9 11 12 11 11 11
5 9 10 7 7 9 8 6 4 6 10 5 5 11 11 6 7 9 12 12 10 10 11 14 15 12 13 13 13 15 17 18 19 20 19 19 19 23 28 31 32 34 34 34 33 34 35 34 34 35 34 34 35 35 34 34 33 32 32 33 33 32 32 30 29 29 28 27 30 31 30 30 31 31 30 29 28 27 27 26 26 25 25 24 23 22 21 20 18 15 11 10 11 11 11 11 11
9 7 9 8 8 10 8 7 7 8 9 6 6 9 10 10 7 5 12 16 14 12 10 12 14 12 13 14 14 16 16 16 17 17 16 17 18 22 28 31 33 34 34 33 34 34 35 35 35 36 37 36 36 34 33 33 33 32 31 33 35 33 32 30 27 26 27 28 29 30 31 31 31 31 30 30 28 27 27 26 26 26 26 26 24 23 22 20 18 14 11 11 11 10 11 12 12
11 6 9 9 6 7 9 8 6 7 8 7 6 7 8 9 7 8 11 13 15 15 11 10 12 13 14 14 14 14 15 15 16 16 17 18 20 25 31 33 34 35 34 33 35 35 35 35 34 35 35 34 34 34 32 32 33 31 30 32 34 34 33 31 28 27 30 31 31 30 31 31 31 31 31 30 29 28 27 27 26 25 25 25 25 25 24 22 19 15 11 12 12 11 12 14 14
8 7 9 11 6 3 6 9 8 7 7 6 6 7 7 4 5 10 13 11 12 14 11 10 11 13 14 14 13 13 14 15 16 16 18 19 21 25 31 33 32 33 32 33 35 35 35 35 34 35 35 34 34 34 33 33 33 30 30 33 34 34 34 31 28 29 31 31 31 32 32 30 31 32 31 30 30 29 28 27 26 25 24 25 25 25 25 23 21 17 13 12 12 12 13 14 14
3 5 6 7 8 7 8 10 10 9 8 6 6 7 7 3 3 8 13 12 12 13 12 11 11 12 13 13 14 14 14 15 17 17 18 19 19 22 27 29 29 30 31 34 36 35 36 36 35 36 35 35 36 35 33 33 32 31 33 34 33 33 33 31 28 29 30 30 30 32 33 31 31 31 32 31 30 30 29 28 27 26 26 25 25 25 25 24 23 21 17 14 13 13 13 14 15
Wind_Direction
150 157 164 164 157 154 163 199 231 178 243 280 273 282 186 178 152 143 142 139 133 140 132 130 139 134 129 130 130 93 49 124 73 27 110 122 146 148 153 152 145 140 139 137 134 135 134 135 132 129 127 126 125 123 124 125 125 123 123 123 122 122 120 119 119 119 119 120 120 121 121 120 119 117 116 112 112 115 117 116 111 109 106 104 102 100 100 100 99 96 93 87 91 98 100 100 101
150 158 167 161 161 170 159 200 253 146 247 288 273 264 121 148 168 150 146 147 131 137 136 132 131 110 104 112 122 109 67 46 50 80 102 133 139 145 155 152 145 141 139 136 134 136 136 137 134 132 129 128 127 125 127 125 124 122 121 120 118 118 118 118 117 117 118 119 120 120 120 118 116 114 115 114 115 116 116 115 111 109 109 106 104 102 101 101 98 95 93 89 91 95 95 95 95
155 157 161 158 169 219 197 183 249 33 269 287 72 164 161 153 147 130 140 137 129 137 134 129 115 97 122 129 122 102 89 63 107 112 122 140 141 151 158 152 147 142 138 136 134 136 138 139 137 133 131 130 129 129 129 126 124 121 120 119 118 118 118 118 117 118 118 118 119 118 118 116 115 113 113 114 113 112 113 113 110 109 111 109 107 104 100 98 95 93 91 91 89 89 92 92 91
156 157 161 164 177 235 216 193 255 325 254 263 56 138 183 154 133 125 133 132 135 142 138 133 110 68 130 132 107 71 105 109 131 129 138 149 148 152 156 153 148 142 138 138 136 138 140 141 138 135 134 133 132 131 129 126 124 122 121 121 121 121 120 120 119 119 117 117 117 116 115 114 115 114 111 111 109 108 110 110 108 110 112 111 111 108 102 97 94 93 92 92 92 89 91 92 91
152 157 172 186 204 218 235 230 211 227 239 309 24 104 176 147 136 131 130 133 141 148 150 144 112 85 75 88 66 92 112 118 140 143 143 148 148 149 154 153 148 144 141 140 139 139 141 142 138 137 136 134 134 132 130 128 126 124 123 123 123 121 120 120 118 116 115 114 115 114 111 111 112 112 110 110 108 107 107 107 107 108 109 110 113 112 106 101 96 93 93 92 90 88 90 92 92
147 152 185 234 293 286 267 249 236 246 286 263 293 69 155 146 138 135 132 133 139 151 155 143 117 120 94 65 45 89 106 121 146 151 147 146 147 149 151 151 149 147 144 143 142 139 142 143 140 140 138 137 135 133 131 129 128 126 124 123 122 120 118 116 115 113 113 114 112 111 108 108 110 109 109 109 106 105 105 104 103 103 103 106 111 113 108 102 98 95 94 89 86 85 86 87 88
151 148 187 251 280 252 269 285 266 267 49 216 252 113 154 147 138 139 140 139 140 148 150 134 124 116 100 98 88 84 80 120 147 152 149 145 146 149 150 150 149 148 146 145 142 140 144 143 142 141 139 139 136 134 132 130 128 126 125 123 121 119 117 114 112 112 113 114 112 110 108 107 107 107 106 106 104 101 101 100 99 99 101 104 108 110 106 101 100 97 93 91 89 86 84 80 79
165 164 176 232 244 209 277 306 280 273 116 188 251 144 151 146 146 146 147 148 149 152 145 143 142 112 99 136 113 89 81 121 141 144 145 144 146 150 150 150 149 149 147 147 143 142 146 144 144 143 141 141 137 136 133 131 127 125 125 122 121 119 117 115 113 113 113 112 110 109 107 104 103 103 101 100 98 96 95 96 95 94 97 100 101 103 102 100 100 98 95 96 92 85 85 80 78
182 205 187 222 311 313 288 301 277 248 241 219 119 134 143 148 153 151 151 152 150 148 145 151 170 135 119 120 107 104 113 127 132 137 144 145 148 150 151 152 150 150 148 147 145 144 147 147 146 143 143 142 139 139 135 133 128 125 124 121 121 119 117 116 115 115 114 111 109 107 105 103 101 100 99 97 96 96 94 93 94 93 94 95 95 97 99 100 99 98 96 99 93 83 82 79 80
188 227 250 263 324 321 301 290 294 230 211 136 119 139 146 154 157 157 154 149 147 139 134 132 116 129 131 117 105 116 135 136 135 139 147 147 149 151 151 153 150 149 148 148 147 146 149 149 148 145 145 143 141 141 136 133 129 126 123 123 121 118 117 116 116 115 114 112 110 106 103 101 100 99 98 96 95 94 92 89 90 90 92 92 91 90 92 96 96 96 96 98 94 80 74 72 76
190 196 244 293 253 304 313 346 329 350 130 127 129 146 156 158 156 158 149 141 144 132 136 138 115 127 129 116 101 123 140 143 143 146 150 149 151 150 150 152 152 150 148 150 149 148 150 150 150 148 147 145 144 142 136 132 129 126 124 124 120 120 120 118 119 117 117 115 110 106 104 104 101 100 98 95 92 90 89 86 88 89 91 89 88 87 85 87 89 91 92 94 91 77 70 70 72
231 186 207 289 278 279 302 318 323 54 132 153 150 157 166 164 158 157 150 140 142 136 149 165 141 136 129 122 120 133 144 148 148 150 150 151 151 150 150 151 152 151 149 150 150 150 151 153 153 150 150 147 147 144 135 131 130 128 126 124 122 122 121 120 119 118 119 115 111 109 107 106 102 100 98 96 93 91 89 88 91 91 91 89 90 90 87 85 85 88 88 91 92 81 72 73 78
240 233 229 297 279 278 296 307 314 130 148 159 156 159 167 171 165 158 150 140 151 154 155 154 145 138 120 121 131 140 150 151 150 151 151 151 153 151 151 151 152 152 151 152 152 153 155 155 156 153 153 151 149 146 135 132 131 130 127 125 124 124 122 121 119 116 117 115 114 112 109 106 102 100 98 97 95 94 92 90 91 91 92 92 92 94 93 91 87 86 87 92 96 91 81 78 85
218 269 322 278 282 284 279 275 199 176 147 147 149 153 168 172 155 155 147 146 157 152 134 140 145 128 114 130 143 154 155 153 152 152 152 152 153 153 152 152 153 153 152 155 155 156 158 158 157 154 155 154 151 147 139 135 132 130 128 127 126 125 124 121 120 118 117 117 115 112 109 105 102 100 99 99 97 94 93 88 85 87 90 88 89 93 95 96 92 89 86 84 79 75 73 69 71
234 288 295 271 289 279 242 229 208 184 142 153 159 154 161 136 139 159 159 154 137 122 124 138 161 138 146 166 169 165 156 154 154 152 152 152 153 153 152 152 154 155 155 157 159 160 162 161 159 157 158 158 153 150 146 141 136 134 132 130 129 128 126 123 122 120 118 118 116 114 111 108 105 103 102 101 98 96 90 85 82 82 84 83 84 87 89 93 94 94 90 85 75 66 64 65 63
236 277 272 273 272 265 206 201 193 170 145 154 158 157 152 121 147 160 155 138 116 139 139 149 182 180 170 176 163 157 154 153 153 151 151 150 151 151 151 153 155 157 158 161 163 164 165 164 163 162 161 161 156 152 150 146 142 140 137 134 132 131 129 127 125 122 122 120 119 120 117 114 112 107 104 103 99 97 92 87 84 82 83 84 84 85 84 86 91 93 93 93 88 82 77 80 77
209 253 246 249 242 252 213 195 180 77 135 153 160 167 157 136 143 125 128 133 131 151 142 136 165 16 158 156 145 150 152 152 153 152 152 151 152 153 154 157 158 159 163 166 167 168 168 167 167 165 165 164 158 154 152 150 148 145 142 139 138 136 132 131 128 126 126 125 125 124 121 116 112 108 105 102 99 96 92 87 85 85 86 84 83 86 82 79 85 86 89 93 94 95 91 90 85
192 211 228 239 234 232 238 170 22 5 153 162 171 177 166 151 149 136 143 143 137 146 125 115 104 82 119 130 139 148 151 153 155 156 156 157 157 159 161 162 163 163 167 169 170 171 171 170 170 169 168 166 161 158 155 153 153 151 148 145 143 140 137 133 132 133 131 131 131 125 122 116 111 110 103 100 100 96 91 89 87 86 86 85 84 87 84 79 79 76 76 81 87 91 88 85 72
199 205 232 233 213 197 290 330 341 334 163 162 177 184 177 159 151 155 162 152 148 146 130 122 107 107 122 133 143 149 154 157 160 161 161 162 163 163 164 165 167 167 169 170 172 174 174 172 172 172 172 170 166 162 158 156 158 157 154 151 149 146 142 139 138 138 137 136 134 129 123 119 117 112 105 102 102 100 95 97 98 94 90 89 91 86 77 75 69 66 64 61 67 69 70 72 67
202 213 237 235 238 249 273 288 291 297 236 175 180 183 184 163 150 169 168 158 168 167 151 147 138 136 141 145 149 153 158 162 163 164 164 165 167 166 165 167 169 169 170 170 172 176 175 174 173 174 175 173 169 166 163 161 162 162 159 157 155 153 150 147 146 145 144 142 138 133 126 122 121 116 110 105 102 102 95 96 97 94 89 81 84 75 64 67 59 56 52 47 50 48 46 45 45
192 209 232 231 247 239 240 315 318 299 244 191 175 175 183 166 159 174 161 159 188 193 176 164 155 149 151 153 155 158 162 165 168 168 167 168 168 168 169 169 170 170 170 170 172 176 177 176 174 175 177 176 174 170 169 168 166 166 164 163 160 158 157 153 155 154 153 151 143 135 130 125 121 120 115 106 106 104 95 88 84 86 88 79 78 68 55 59 53 49 45 39 38 39 40 33 32
204 221 240 248 258 268 322 38 42 30 277 177 170 179 174 161 177 181 172 178 201 200 184 164 153 152 155 158 159 162 166 169 171 172 170 170 170 170 170 169 169 170 170 173 174 176 178 178 177 176 178 180 179 175 174 173 170 169 168 169 165 163 162 161 161 163 162 159 154 143 135 130 124 126 119 111 112 105 93 84 82 86 86 76 69 57 41 44 41 41 36 30 34 33 36 34 34
228 234 242 244 251 265 274 285 334 348 278 179 180 182 161 168 193 190 191 200 153 154 164 151 149 154 155 158 162 167 171 173 175 176 173 171 172 173 172 170 170 171 173 176 176 177 179 180 181 180 180 181 183 181 178 176 174 173 173 173 172 171 169 169 169 170 172 168 165 157 147 141 135 133 125 118 111 101 88 80 83 79 72 54 44 37 22 30 30 31 22 17 38 32 30 35 27
235 248 247 244 247 253 265 282 299 308 259 224 187 175 178 189 196 191 203 209 116 132 144 143 146 152 156 159 166 171 173 175 177 178 176 173 174 174 173 171 171 173 175 177 176 178 180 182 183 184 184 183 184 185 182 180 180 178 179 179 179 180 176 176 179 177 177 177 175 171 162 157 150 139 129 119 112 104 92 86 81 61 54 26 19 25 20 23 26 29 18 15 29 21 29 45 25
229 243 251 246 250 255 267 280 284 287 271 235 185 190 199 197 190 191 205 195 133 137 138 142 146 151 160 164 168 171 175 177 176 178 178 177 176 174 174 174 173 176 178 177 178 180 182 183 184 186 187 185 184 186 186 185 184 182 182 183 184 186 183 182 183 182 184 185 186 181 173 170 164 150 135 123 116 108 103 100 72 35 22 10 7 19 24 24 27 23 11 16 20 17 30 48 42
223 233 249 254 261 270 278 281 280 286 275 193 191 209 206 193 193 209 203 173 137 139 141 146 150 156 164 168 171 173 175 178 178 178 179 177 177 177 178 178 178 180 179 178 179 181 182 183 185 187 188 189 187 186 189 188 186 186 185 186 187 187 187 188 186 188 193 193 193 189 182 179 179 172 154 137 128 118 119 122 23 354 352 357 3 9 10 18 23 11 11 19 15 21 25 32 50
220 233 250 257 268 274 275 276 274 281 268 207 212 229 208 187 200 219 184 158 143 142 149 153 156 162 167 170 173 175 177 179 178 177 178 179 180 181 180 181 182 182 180 180 182 182 182 185 187 188 189 192 191 190 193 192 189 189 189 188 189 190 189 189 189 197 199 198 199 196 190 186 186 190 180 162 148 151 222 305 324 331 344 345 356 6 360 4 14 2 12 21 12 18 11 32 74
265 253 261 256 266 268 262 263 263 268 254 213 220 242 205 178 208 219 164 153 152 149 155 160 164 166 169 172 172 175 179 178 177 178 180 182 184 184 183 184 184 183 182 182 182 182 184 186 188 189 190 193 195 197 198 198 195 192 192 192 193 193 192 193 196 201 201 201 203 202 200 194 193 197 194 192 187 214 278 302 314 320 333 334 343 3 359 348 349 339 352 9 358 12 30 59 83
260 277 284 274 279 274 257 249 245 237 234 205 208 245 204 189 216 206 156 156 158 154 160 165 168 168 169 172 172 177 179 177 180 184 186 185 185 186 186 187 185 183 184 183 181 182 185 187 189 191 192 195 198 200 203 205 204 200 197 197 198 197 197 200 201 202 202 204 207 208 210 207 204 207 208 218 228 253 278 291 305 314 318 326 326 335 353 337 325 323 332 350 343 10 60 68 68
242 256 270 283 291 277 249 230 223 218 225 177 172 250 225 209 216 184 153 162 161 159 166 169 170 170 172 173 174 179 180 181 184 187 188 187 187 187 187 187 185 183 182 181 181 184 186 187 188 191 194 197 199 202 207 209 209 209 205 202 201 202 205 207 205 206 204 205 211 214 217 217 217 218 223 233 246 267 282 292 300 307 306 313 314 317 341 326 320 329 335 357 2 39 69 61 56
216 227 243 255 268 258 206 180 200 204 199 169 177 252 251 227 207 173 160 166 166 169 173 172 173 172 174 176 177 180 183 187 189 189 190 188 187 188 187 187 187 185 182 181 184 186 187 187 189 191 195 198 199 203 208 211 213 214 213 211 208 207 211 212 210 209 209 210 213 218 220 223 226 226 231 241 253 271 284 294 295 300 299 299 304 312 334 323 328 350 359 11 17 53 67 46 28
198 201 219 217 234 254 244 180 193 203 179 173 188 241 257 248 196 169 167 171 172 175 176 175 176 175 176 178 179 182 186 190 192 191 192 190 188 188 188 189 189 188 185 183 184 186 187 190 190 192 195 197 199 202 207 212 215 217 217 219 219 218 218 218 217 214 216 216 217 222 224 225 227 229 235 245 259 272 284 293 292 292 292 287 290 304 335 330 335 353 9 14 12 37 51 24 350
201 211 219 192 206 242 249 200 205 212 181 179 198 235 265 255 174 167 169 176 178 177 178 179 179 178 177 179 180 182 185 189 194 195 194 192 191 191 189 190 190 190 189 186 185 186 188 191 194 195 197 197 199 201 204 211 216 218 220 222 225 226 226 226 224 221 222 223 223 224 225 225 227 229 237 249 261 270 282 293 292 286 282 278 282 297 326 332 337 346 357 3 359 10 17 345 324
198 208 217 197 207 230 239 230 209 208 204 195 205 232 253 246 146 168 175 178 182 181 180 180 181 181 180 180 182 182 185 189 193 195 194 192 192 192 192 192 192 191 192 191 190 189 190 191 195 197 198 198 198 202 203 208 216 220 221 224 228 230 230 231 231 228 227 228 229 227 225 225 227 230 238 250 258 263 278 293 290 279 274 273 278 293 309 316 324 336 346 345 341 337 314 303 290
204 196 201 206 218 234 233 232 173 190 209 212 208 227 242 235 157 175 182 180 185 187 183 182 181 181 181 181 185 185 187 192 194 193 192 191 191 191 193 193 192 192 193 193 192 192 192 192 195 198 199 199 199 202 203 206 215 220 222 226 229 232 233 233 233 233 231 232 233 232 227 223 226 231 239 250 255 256 269 288 284 269 265 273 282 291 298 298 298 312 326 323 335 321 301 308 268
217 205 208 210 216 231 227 227 239 181 209 216 216 228 237 231 201 187 187 186 192 192 183 182 182 181 183 185 188 189 191 194 192 190 190 190 191 190 191 192 192 193 193 193 192 193 194 194 196 199 200 199 199 201 202 203 210 217 220 223 226 231 233 234 235 236 235 236 236 235 231 225 227 234 240 249 251 250 259 276 277 262 256 268 281 286 292 292 296 313 327 325 336 319 312 325 272
266 216 218 222 224 233 223 219 245 226 226 226 223 237 242 237 220 199 191 190 197 195 185 184 184 184 186 189 192 193 195 194 188 188 191 191 191 190 190 192 192 192 193 192 192 193 196 196 197 200 201 199 198 199 201 200 202 208 213 217 220 226 231 234 236 237 238 238 238 238 235 230 231 237 243 248 248 247 252 264 269 259 254 261 273 282 291 295 295 311 331 339 332 307 312 329 281
255 237 222 229 228 238 243 239 259 228 235 240 230 243 248 242 229 205 189 191 200 199 192 189 188 188 191 192 194 194 191 188 185 188 191 192 192 191 190 192 192 192 193 192 193 196 197 198 200 201 200 199 201 200 200 201 203 207 211 215 217 220 228 233 234 237 239 240 240 239 236 233 234 240 246 249 247 247 250 258 263 260 258 260 271 280 285 291 292 303 315 321 321 295 301 309 218
238 243 236 234 221 248 262 250 253 235 235 246 230 242 253 249 233 208 190 196 205 203 198 193 188 189 192 194 194 190 184 184 187 188 190 192 193 192 191 193 194 194 195 195 194 196 197 199 201 201 201 202 203 204 205 206 208 213 214 217 219 218 227 232 233 237 240 240 240 240 237 234 236 241 246 249 249 248 250 256 259 259 259 260 267 274 277 281 282 289 287 271 288 277 278 279 195
229 230 232 230 204 235 246 221 231 239 240 257 254 255 260 255 232 209 201 205 208 206 206 202 194 193 194 193 191 187 185 185 187 188 189 192 194 195 195 195 194 194 197 198 195 194 196 198 200 201 202 204 205 206 208 209 210 215 217 219 222 221 227 234 235 239 242 241 239 238 235 232 235 239 243 248 251 250 252 255 257 258 258 257 259 265 268 270 273 284 282 262 264 267 259 226 196
224 226 229 228 219 231 253 332 349 271 237 241 254 268 264 245 236 226 206 209 213 206 206 209 207 203 196 193 194 192 190 188 186 188 189 191 194 196 197 197 195 194 198 199 196 195 196 199 200 201 203 205 208 208 208 207 209 212 213 215 219 220 223 228 228 232 236 236 235 235 234 231 233 236 239 247 252 253 254 256 257 257 257 256 254 257 261 261 262 272 279 266 258 272 274 217 205
224 225 226 230 233 237 261 295 314 285 231 205 216 250 258 230 235 239 196 196 215 207 203 211 207 199 195 196 198 196 196 194 191 190 189 190 192 194 197 198 197 196 198 200 197 195 197 199 199 201 203 206 208 210 210 207 205 203 202 202 202 204 207 211 215 219 225 230 230 230 232 230 230 233 235 244 251 253 255 256 257 256 258 258 253 255 259 257 255 259 272 268 253 268 273 236 219
233 219 213 222 235 239 249 265 273 260 255 268 219 245 257 225 227 233 192 192 211 206 208 215 206 196 200 202 199 197 197 195 194 194 192 190 190 192 195 196 196 196 196 197 195 195 197 197 198 200 202 205 206 209 209 205 202 201 201 201 200 200 202 208 218 221 224 230 229 228 231 231 230 231 233 239 246 251 254 256 256 256 259 259 253 253 254 252 250 252 263 266 257 265 260 243 235
239 196 185 207 224 231 238 250 252 259 290 294 258 241 263 253 230 214 194 202 211 206 213 216 204 201 205 204 203 200 198 194 192 193 193 192 191 192 194 195 196 196 195 194 193 195 196 195 199 200 202 204 204 206 206 202 201 202 202 203 204 206 208 212 220 223 226 232 233 231 233 234 232 230 232 236 241 246 252 254 254 255 258 258 253 250 249 245 246 251 257 261 262 264 252 243 244
234 161 167 196 214 225 232 243 250 261 286 269 244 212 251 256 229 148 192 211 214 209 216 215 205 206 207 205 205 201 198 196 194 194 193 193 194 194 195 195 196 195 194 194 193 194 194 195 200 201 202 203 203 205 205 204 205 204 202 202 204 210 212 214 217 221 225 230 232 232 234 236 235 233 233 235 238 242 247 251 252 252 255 257 254 248 243 241 243 249 251 255 263 264 253 245 244
206 150 171 192 206 218 223 234 247 252 253 252 239 211 235 260 237 194 192 212 215 212 218 215 208 211 209 206 207 202 198 197 196 196 194 195 196 196 195 194 194 194 195 194 192 192 193 194 198 200 202 203 203 204 205 206 206 205 204 203 204 208 209 208 209 213 221 225 228 230 232 236 236 236 235 235 237 239 242 247 249 250 251 255 255 248 244 242 243 247 250 252 260 263 256 249 248
164 155 180 183 196 209 214 224 237 246 246 243 236 219 222 259 249 213 201 214 213 204 211 212 210 215 212 209 208 201 197 197 196 196 196 196 197 196 195 194 194 194 194 192 191 192 193 193 195 198 201 202 202 203 204 205 205 205 205 205 206 208 205 203 203 206 214 220 223 225 230 234 235 237 236 236 237 238 241 244 247 249 250 252 254 253 250 245 241 245 250 250 253 258 256 252 252
179 186 192 174 182 191 205 204 196 235 247 232 226 219 218 242 245 211 200 212 215 210 207 205 207 213 213 208 205 201 199 195 191 194 195 193 194 194 194 194 194 193 193 191 191 192 192 192 193 195 198 200 200 202 203 203 204 205 206 207 208 208 204 203 204 206 211 216 219 221 227 231 234 235 235 236 237 238 240 243 246 248 248 250 252 254 255 250 242 243 249 250 250 254 252 250 252
198 200 194 192 195 181 202 205 197 229 246 220 206 208 219 242 251 237 227 226 226 222 214 210 208 210 211 208 204 203 200 195 190 191 192 191 192 191 191 192 191 190 191 191 191 192 191 191 191 193 196 199 199 200 201 201 203 205 206 206 208 207 205 206 208 209 212 216 217 218 224 228 230 232 232 234 237 238 240 242 245 247 248 250 251 252 256 257 252 247 247 250 251 254 250 247 251
202 201 194 199 198 194 209 209 210 229 239 201 169 193 232 252 252 233 232 239 239 229 220 221 216 210 209 206 202 200 197 195 192 190 191 193 193 190 190 191 188 188 191 191 191 192 190 189 191 193 196 198 199 199 200 201 203 205 206 206 207 206 206 209 211 212 214 217 218 220 224 226 227 230 232 234 237 239 240 241 244 247 249 251 252 252 254 257 259 253 248 250 252 255 252 245 248
203 201 202 209 202 210 216 206 217 234 248 197 165 181 229 225 211 209 219 235 238 227 219 221 222 216 209 203 198 198 198 195 193 191 194 196 192 189 190 191 189 189 191 191 191 190 188 188 190 192 194 195 198 199 199 201 203 205 206 206 207 207 208 210 212 214 215 218 220 222 225 227 229 232 235 237 240 241 242 242 244 247 249 251 252 253 252 255 259 254 246 246 247 249 246 241 245
204 195 205 217 207 210 219 224 228 238 266 227 186 212 246 238 315 283 227 235 233 226 219 215 222 215 199 197 197 198 200 196 193 193 195 195 191 188 189 190 191 191 191 192 191 188 187 187 189 192 194 194 196 198 200 202 203 204 205 206 207 208 209 209 212 216 218 221 222 223 226 230 231 234 237 240 242 243 243 243 244 247 250 252 253 254 252 252 256 254 243 240 240 241 240 238 242
182 192 211 205 192 207 221 233 211 214 249 233 187 231 250 273 279 254 223 231 230 227 223 219 224 208 186 196 200 199 200 197 195 196 196 192 187 188 190 192 192 191 192 192 189 187 187 187 189 192 194 194 196 198 200 202 202 202 204 206 207 208 209 210 213 217 218 219 223 224 226 229 232 235 237 240 242 243 243 243 244 247 250 253 255 256 254 252 253 252 243 239 239 238 239 240 241
183 200 200 166 181 214 226 232 209 209 238 226 185 229 235 227 244 223 210 222 226 220 218 222 223 201 191 203 203 200 199 196 198 197 193 189 186 188 191 193 194 193 192 191 187 185 187 189 190 191 193 194 196 198 199 201 201 201 202 205 206 207 209 210 212 215 214 214 219 222 223 227 231 234 236 238 240 242 243 244 245 247 249 252 254 256 256 253 251 248 241 240 242 237 238 240 241
229 214 175 166 201 208 203 226 227 221 237 234 201 225 236 225 221 210 208 218 227 222 214 224 220 198 200 209 204 201 198 196 198 196 191 188 188 190 191 194 195 193 191 190 188 187 189 190 190 192 195 195 196 197 198 200 201 200 202 204 207 208 209 209 209 209 211 214 217 219 221 225 230 232 234 237 239 240 242 244 245 247 247 250 252 254 255 252 247 243 238 238 240 235 236 240 241
228 219 183 195 220 207 199 212 225 224 235 239 214 216 238 233 225 236 225 216 224 223 212 220 218 201 203 209 204 199 196 196 199 197 193 190 191 192 192 194 194 191 189 188 188 190 192 192 190 192 194 194 195 195 196 199 200 200 200 203 205 208 209 208 207 208 213 216 218 219 221 224 227 231 233 236 238 239 241 244 245 246 245 247 249 250 252 251 247 242 236 237 239 235 236 240 242
214 214 206 205 201 197 208 213 219 225 231 234 223 226 242 228 201 232 237 224 221 223 216 215 214 206 204 207 203 194 192 198 199 196 196 193 193 195 194 193 192 190 188 186 188 191 192 192 191 191 192 192 193 194 195 198 199 198 200 202 204 207 208 208 207 211 215 217 218 220 222 223 226 230 232 234 236 239 242 244 245 244 245 245 247 248 249 249 248 243 237 237 239 237 240 243 245
255 239 229 215 208 202 210 218 215 219 234 232 229 245 250 225 178 220 230 226 218 218 219 219 217 212 208 207 202 195 192 197 198 197 196 194 192 194 192 189 188 188 187 187 189 190 190 192 191 190 191 192 193 194 194 196 197 198 201 203 204 205 207 207 206 210 214 215 217 221 223 223 225 229 232 233 236 239 241 244 244 244 246 246 248 249 248 248 248 246 243 239 238 239 241 243 245
Height
790 793 794 795 795 797 798 798 809 809 807 815 809 806 803 794 795 797 799 797 797 794 787 789 789 791 796 800 801 802 804 806 811 816 819 814 810 814 816 817 819 820 823 824 826 827 828 829 830 831 832 833 834 835 836 837 837 838 839 840 840 842 842 843 844 845 845 845 846 846 848 848 849 850 850 851 851 851 851 851 852 853 854 855 855 855 855 855 856 855 855 856 856 856 857 857 858
791 793 794 796 795 798 799 797 813 814 810 816 806 803 800 792 796 798 798 796 795 790 784 786 788 791 792 792 795 801 805 806 807 808 810 810 812 816 816 818 820 821 823 825 826 827 829 830 831 832 833 834 835 836 837 837 838 839 840 841 841 842 843 844 845 846 846 847 847 848 849 849 850 851 851 851 851 852 852 852 853 854 855 856 856 856 856 857 857 857 857 857 857 858 858 859 859
792 793 794 797 796 797 798 800 813 815 815 817 805 798 796 796 798 796 793 791 788 785 785 787 790 793 794 797 799 803 809 807 805 806 809 811 812 815 818 819 820 822 824 825 827 828 830 831 832 833 834 835 836 837 838 839 839 840 841 842 843 843 844 845 846 847 847 848 848 849 850 850 851 851 852 852 852 853 853 853 854 855 856 856 857 857 858 858 858 858 858 858 859 859 859 860 860
792 794 794 795 798 799 801 807 810 812 816 814 806 796 794 796 795 793 789 787 784 783 787 789 794 793 793 802 802 802 808 807 805 805 808 812 812 815 818 819 821 823 824 826 827 829 830 831 833 834 835 836 837 838 839 840 840 841 842 843 843 844 845 846 847 847 848 848 849 849 850 851 851 852 852 853 853 853 853 854 855 856 856 857 858 858 858 859 859 859 859 859 859 860 860 861 861
792 794 795 794 800 801 802 806 805 809 810 805 804 796 792 792 791 792 788 786 784 784 787 789 797 795 792 799 800 804 807 806 807 806 807 811 813 815 818 820 822 824 826 827 828 830 831 833 834 835 836 837 838 839 840 841 841 842 843 844 844 845 846 847 847 848 848 849 849 850 851 852 852 852 853 854 854 854 854 855 856 856 857 858 858 859 859 860 860 860 860 860 860 861 861 861 861
792 795 795 795 797 796 802 807 806 807 799 794 800 794 790 789 789 790 788 787 784 784 786 788 795 796 799 800 799 802 804 804 806 806 807 811 814 816 818 821 823 825 827 828 830 831 832 834 835 836 837 838 839 840 841 842 842 843 844 845 846 846 847 848 848 849 849 850 850 851 852 853 853 853 854 855 855 855 855 856 857 857 858 859 859 859 860 860 861 861 861 861 862 862 862 862 862
792 795 797 799 797 796 805 807 804 803 792 788 793 790 789 788 788 789 790 791 789 787 786 789 789 795 805 803 801 802 801 803 803 806 809 811 815 817 820 821 824 826 827 829 831 832 833 835 836 837 838 839 840 841 842 842 843 844 845 846 847 847 848 849 849 850 850 851 851 852 853 854 854 854 855 855 856 856 856 857 858 858 859 859 860 860 860 861 862 862 862 862 863 863 863 864 864
791 794 796 801 802 799 805 805 800 798 791 786 785 785 786 786 787 788 790 791 792 790 789 790 786 797 808 801 806 805 802 804 804 807 810 812 816 818 821 822 825 826 828 830 831 833 834 836 837 838 839 840 841 842 843 843 844 845 846 847 848 849 849 850 851 851 851 852 852 853 854 855 855 855 856 856 857 857 858 858 858 859 859 860 860 861 861 862 863 863 863 864 864 864 864 865 865
791 793 794 799 803 802 804 803 798 794 791 786 784 784 783 784 785 787 789 789 789 790 791 789 786 798 807 804 808 805 802 806 806 809 811 813 816 819 822 823 825 827 829 831 832 834 835 837 838 839 840 841 842 843 843 844 845 846 847 848 849 850 850 851 851 852 852 853 853 854 855 855 856 856 857 857 858 858 858 859 859 860 860 861 861 862 862 863 863 864 864 865 865 865 866 866 866
792 794 795 799 803 808 806 801 796 792 789 786 784 784 783 783 783 785 787 789 788 790 791 787 789 798 805 808 810 805 804 807 807 810 812 815 817 819 822 824 826 827 830 832 833 835 836 838 839 840 841 842 843 844 845 845 846 847 848 849 850 850 851 852 853 853 853 854 855 855 856 856 857 857 858 858 859 859 859 860 860 861 861 862 863 863 863 864 864 865 866 867 867 867 867 868 867
795 794 793 799 806 812 808 800 795 790 788 785 785 782 781 780 783 785 785 789 787 790 791 788 795 799 802 808 809 805 805 807 808 811 813 816 818 820 823 825 827 829 830 832 834 836 837 839 840 841 842 843 844 844 846 846 847 848 849 850 851 851 852 853 854 854 855 856 856 857 857 857 858 858 859 860 860 860 860 861 861 862 862 863 864 864 864 865 865 865 867 868 869 869 869 869 868
798 796 793 803 808 808 803 799 795 790 788 788 787 782 778 779 783 786 786 790 788 792 791 789 794 795 803 810 808 806 805 808 810 811 814 817 819 821 824 826 828 830 831 833 835 836 838 839 841 842 843 844 845 846 847 847 848 849 850 851 851 852 853 854 855 855 856 857 857 857 858 858 859 859 860 861 861 861 861 862 862 863 864 864 865 865 866 866 866 867 868 869 870 870 870 870 869
798 796 796 805 803 802 800 797 794 791 791 787 785 780 776 780 783 784 785 789 789 793 791 786 789 791 803 809 806 806 806 808 810 812 815 817 820 822 825 826 829 830 832 834 835 837 839 840 841 843 844 845 846 847 847 848 849 850 851 851 852 853 854 855 856 857 857 857 858 858 859 859 860 860 861 861 862 862 863 863 864 865 865 865 866 866 867 867 868 868 869 869 869 870 870 871 871
793 791 796 804 800 799 798 795 792 792 792 784 781 778 777 780 780 779 783 790 791 789 786 782 784 793 804 809 809 807 805 808 810 813 815 818 821 823 825 827 829 831 833 835 836 838 839 841 842 843 845 846 847 848 849 849 850 851 852 852 853 854 855 856 857 857 858 858 859 859 860 860 861 861 862 862 863 863 864 864 865 866 866 866 867 867 868 869 869 869 869 869 868 869 869 870 871
789 788 794 803 802 800 795 792 790 791 790 781 779 777 779 780 777 779 781 788 791 782 782 784 783 792 801 806 808 803 803 808 810 814 816 819 822 824 826 828 830 832 834 835 837 838 839 841 842 844 845 846 847 848 849 850 851 852 852 853 854 855 856 857 857 858 859 859 860 860 861 861 862 862 862 863 863 864 865 865 866 866 867 867 868 868 869 870 871 871 871 870 869 870 869 869 870
785 787 797 804 804 801 793 788 788 790 786 778 777 775 782 782 775 781 778 779 787 782 783 788 785 789 794 796 798 798 802 807 810 814 816 819 822 824 827 828 831 832 834 836 837 839 840 842 843 844 845 847 848 849 850 851 852 852 853 854 855 856 856 857 858 859 859 860 860 861 861 862 862 863 863 864 864 865 866 866 867 867 868 868 868 869 869 870 871 872 872 873 872 872 872 872 873
784 791 802 805 803 799 791 786 787 787 783 778 778 775 783 785 777 778 774 774 785 786 785 787 785 785 788 790 793 797 802 806 810 813 815 819 821 824 827 828 831 832 834 836 837 839 840 842 843 844 846 847 848 849 850 851 852 853 854 855 855 856 857 858 859 859 860 861 861 861 862 862 863 863 864 864 865 866 866 867 867 868 868 868 869 869 870 870 871 872 873 873 874 875 875 874 874
790 798 803 802 799 793 785 783 781 780 780 779 778 776 779 785 782 777 777 781 784 788 788 787 787 786 787 790 794 799 803 806 809 812 814 817 819 822 825 827 829 832 834 836 838 839 841 842 843 845 846 847 848 849 851 851 853 853 854 855 856 857 857 859 859 860 861 861 862 862 863 863 864 864 865 865 866 867 867 867 868 868 869 869 869 870 870 871 871 872 872 873 874 874 875 875 874
792 796 800 796 790 785 778 778 777 776 778 778 778 775 776 780 780 777 783 789 787 791 793 790 792 792 791 793 796 800 803 806 808 810 812 815 817 819 822 825 828 831 833 835 837 839 841 842 844 845 846 848 849 850 851 852 853 854 855 855 856 857 858 859 860 860 861 862 863 863 864 864 865 865 865 866 867 867 867 868 868 868 869 869 870 870 870 871 871 872 872 872 873 873 874 875 875
789 792 797 789 781 780 776 776 775 773 773 777 778 776 777 777 775 777 783 789 788 790 792 792 796 795 795 795 796 800 803 806 808 810 812 814 817 819 821 824 826 829 832 834 837 839 840 842 844 845 847 848 849 850 851 852 853 854 855 856 857 858 858 859 860 861 861 862 863 864 864 865 865 866 866 867 867 868 868 868 868 869 869 870 870 871 871 871 872 872 872 872 873 873 874 874 874
787 789 791 782 777 781 776 773 772 770 770 773 776 777 779 775 773 777 781 790 791 786 783 785 790 792 793 795 795 798 801 804 807 809 811 814 816 819 821 823 826 828 831 834 836 838 840 842 843 845 847 848 849 850 851 852 853 854 855 856 857 858 859 859 860 861 862 863 863 864 865 865 866 866 867 867 868 868 869 869 869 870 870 870 871 871 872 872 872 872 872 873 873 873 874 874 874
786 784 781 777 777 781 775 771 771 770 771 773 777 779 778 774 775 776 778 786 785 777 775 778 782 786 789 792 795 797 800 803 805 808 810 812 815 817 820 823 826 828 831 834 835 838 839 841 843 844 846 848 849 850 851 852 853 854 855 856 857 858 859 860 861 861 862 863 864 864 865 866 866 867 867 868 868 869 869 870 870 870 871 871 871 872 872 873 873 873 873 873 874 874 874 874 874
787 782 776 775 775 778 774 770 771 770 773 776 776 775 772 776 779 775 774 777 773 768 770 775 779 782 785 789 793 796 798 800 803 805 808 810 813 815 818 821 824 827 830 832 835 837 839 841 842 844 846 847 849 850 851 852 853 854 855 856 857 858 859 860 861 861 862 863 864 865 865 866 867 867 868 868 869 869 870 870 870 871 871 872 872 873 873 873 873 873 874 874 874 874 874 875 875
786 783 776 774 773 774 771 769 770 770 773 772 770 771 773 779 779 774 774 772 767 767 769 773 779 782 786 789 792 794 796 799 802 806 808 810 813 815 818 820 823 826 829 832 834 836 838 840 841 843 845 847 848 850 851 852 853 854 855 856 857 858 859 860 861 861 862 863 864 865 865 866 867 868 868 868 869 869 870 870 871 871 872 872 872 873 874 874 874 874 874 874 874 875 875 875 875
785 781 776 773 772 771 768 768 769 769 769 767 769 774 774 773 773 774 775 770 767 768 770 774 779 783 787 789 792 794 797 799 802 805 808 811 814 816 819 821 823 826 828 830 833 835 837 839 841 842 844 846 848 849 851 852 853 854 855 856 857 858 859 860 861 862 862 863 864 865 866 866 867 868 868 869 869 870 870 871 871 872 872 873 873 874 874 874 875 874 874 875 875 875 875 875 875
779 776 775 774 773 769 767 768 768 768 767 767 772 775 772 768 771 775 772 769 768 768 773 776 780 785 787 790 791 793 795 798 800 803 807 810 813 815 817 820 822 824 826 829 831 834 836 838 840 842 843 845 847 848 850 851 852 854 855 856 857 858 859 860 861 862 862 863 864 865 866 867 867 868 869 869 870 870 871 871 872 872 873 873 874 874 874 875 875 875 875 875 875 875 875 875 875
771 774 774 773 773 768 767 768 766 766 766 766 772 775 770 766 773 778 769 765 768 770 776 777 780 784 786 789 790 792 794 796 799 802 805 808 811 813 815 818 820 822 825 828 830 832 835 837 839 841 843 844 846 848 849 850 852 853 855 856 857 858 859 860 861 862 862 863 864 865 866 867 868 868 869 870 870 871 871 872 872 872 873 873 874 874 874 875 875 875 875 875 874 874 874 875 875
769 773 774 772 771 767 765 767 765 765 766 763 766 771 770 770 775 774 766 764 767 772 777 778 780 783 784 787 790 792 794 796 799 801 803 805 807 810 813 815 818 821 824 826 828 831 834 836 838 840 842 843 845 847 848 849 851 853 854 856 857 857 858 859 860 861 862 863 864 865 866 867 868 868 869 870 871 871 872 872 872 872 873 873 874 874 874 874 874 875 875 875 874 874 874 875 875
771 772 778 775 770 768 763 762 762 764 766 758 763 776 778 776 774 766 762 764 767 772 777 778 780 782 784 786 788 791 793 795 798 799 800 802 805 808 810 813 816 819 822 824 827 830 832 835 837 839 841 843 844 845 847 849 850 852 854 855 856 857 858 859 860 861 862 863 864 865 866 867 868 869 869 870 871 872 872 872 873 873 873 873 874 874 874 875 874 874 875 875 875 875 875 875 876
774 773 779 779 777 772 758 757 759 762 763 754 765 788 784 771 766 761 760 763 768 774 777 778 780 781 783 785 787 790 791 793 795 796 799 801 804 806 809 812 815 818 820 823 826 828 831 834 836 838 840 842 843 845 846 848 849 851 853 854 856 856 857 859 859 861 862 863 864 865 866 867 868 869 869 870 871 872 872 872 873 873 873 874 874 874 875 875 875 875 875 875 875 875 875 875 876
775 777 779 781 786 776 756 755 759 763 761 750 766 790 780 763 760 758 758 761 767 773 775 776 779 780 782 784 786 788 789 790 792 795 798 800 803 805 808 811 814 817 819 821 824 827 830 832 834 836 838 840 842 843 845 847 849 850 852 853 855 856 857 858 859 861 862 863 864 865 866 867 868 869 869 870 871 872 872 873 873 873 874 874 874 874 875 875 875 875 875 875 876 875 875 876 876
774 782 784 782 785 776 758 755 757 762 760 752 766 784 774 759 756 754 755 759 763 770 773 775 777 778 781 782 784 786 787 789 791 794 796 799 802 804 806 809 812 814 816 819 822 826 828 830 833 835 836 839 840 842 844 846 848 849 851 852 854 855 856 858 859 860 862 863 864 865 866 867 868 869 869 870 871 872 872 873 873 873 874 874 874 874 875 875 875 875 875 876 876 876 875 876 876
776 781 784 782 783 777 766 758 752 755 759 758 764 774 770 759 753 752 754 757 761 767 771 773 775 776 778 780 782 784 786 789 790 792 794 797 800 802 805 808 810 813 815 818 821 823 826 829 831 833 835 837 839 841 843 845 847 848 850 852 853 854 856 857 859 860 861 862 863 864 865 867 868 868 869 870 871 872 872 873 873 873 874 874 875 875 876 876 875 875 876 877 877 877 876 877 877
780 780 781 780 779 777 772 764 753 751 758 763 763 766 765 758 754 754 754 755 760 765 768 770 772 774 776 778 780 782 784 786 787 788 791 795 797 800 803 806 809 812 815 817 819 821 824 827 829 832 834 836 838 840 842 844 845 847 849 851 852 853 855 857 858 859 860 861 862 864 865 866 867 868 869 870 871 871 872 873 873 874 874 874 875 876 876 877 877 877 878 878 877 877 877 877 878
780 781 782 781 778 775 774 768 757 755 759 763 765 766 762 757 756 756 754 754 758 761 763 766 768 772 774 775 777 779 780 782 782 784 788 792 795 798 801 805 808 810 813 816 818 821 823 826 828 830 833 834 837 839 841 843 844 846 848 850 851 852 854 855 857 858 859 861 861 863 864 865 867 868 869 870 870 871 872 872 873 874 874 874 875 876 877 878 878 879 879 878 878 878 877 877 877
774 776 778 779 776 773 769 764 756 755 762 763 763 765 761 758 757 757 755 754 757 759 760 764 767 770 772 774 775 776 777 778 778 782 786 789 793 796 799 803 806 809 812 814 817 820 821 824 826 829 831 832 836 838 840 842 843 845 847 848 850 851 852 854 855 857 858 860 861 862 863 865 866 867 868 869 870 871 871 872 873 873 874 874 875 876 877 877 877 878 878 878 878 878 877 877 877
773 775 777 777 775 771 764 763 757 752 763 764 758 761 759 756 755 753 754 755 758 760 762 765 766 768 770 771 772 772 774 774 776 781 784 788 791 794 798 801 804 807 810 812 815 817 819 822 825 826 828 831 833 835 837 839 840 842 844 846 848 849 851 852 854 856 857 859 860 861 863 864 865 866 867 868 869 870 871 872 872 873 873 874 875 875 876 877 877 877 877 878 878 878 877 877 877
775 776 777 776 775 771 762 762 758 753 763 764 757 761 759 753 752 750 752 757 759 758 759 762 763 765 766 767 769 770 772 774 776 780 782 786 789 792 795 798 801 803 806 809 811 814 817 820 822 823 826 829 830 832 834 836 837 839 841 844 846 849 850 851 853 855 856 858 859 861 862 863 864 865 866 867 868 869 870 871 872 872 873 874 874 875 876 876 876 877 877 877 878 878 878 877 877
776 776 779 779 773 770 765 761 758 756 763 764 759 762 758 749 748 748 750 754 753 750 751 753 756 760 762 763 765 768 771 773 774 776 779 782 786 789 793 795 798 800 804 807 809 812 815 817 819 821 824 826 828 830 831 833 835 837 840 842 845 847 849 850 852 854 855 857 858 860 861 862 863 864 865 866 867 868 869 871 871 872 873 873 874 874 875 876 876 876 877 877 878 878 878 878 878
776 775 779 779 772 773 772 764 761 758 759 761 760 761 756 748 748 748 747 746 746 746 746 748 750 753 755 756 760 763 767 769 771 773 774 778 782 785 788 791 794 798 801 804 806 809 812 814 816 819 821 823 825 827 829 832 835 837 839 841 844 846 848 849 851 853 854 856 857 858 859 861 862 863 864 865 866 867 868 870 871 871 872 873 873 874 875 876 876 876 877 877 878 878 877 878 878
774 771 774 775 771 773 772 766 763 759 757 757 761 769 760 750 753 750 744 744 745 746 748 750 750 751 753 755 757 760 762 764 766 768 770 773 776 780 784 788 791 794 797 800 802 805 808 810 813 816 819 821 822 825 828 831 834 836 839 841 844 845 847 848 850 851 852 853 855 856 858 859 861 862 863 864 865 866 867 868 870 870 871 872 873 873 874 875 876 876 876 877 877 877 877 878 878
774 768 766 769 770 772 771 769 768 770 770 759 762 782 772 750 750 749 744 747 748 747 748 750 750 751 754 756 756 757 758 760 762 763 765 768 772 777 781 784 787 789 792 796 799 802 805 808 810 813 816 818 820 823 826 829 832 835 837 839 841 843 845 846 847 848 850 851 853 855 857 858 859 861 862 863 864 865 866 867 868 869 870 871 872 873 873 874 875 875 876 876 877 876 877 878 878
774 762 759 766 769 772 773 772 775 780 778 761 759 781 777 756 749 744 742 748 747 746 747 745 746 749 750 751 753 753 755 757 759 762 763 766 770 774 777 779 782 785 788 792 796 799 802 805 807 811 813 816 818 820 823 827 830 832 835 836 838 840 841 843 844 846 848 850 852 854 855 857 858 859 860 861 862 863 864 866 867 868 869 870 871 872 872 873 874 875 875 876 876 876 876 877 878
770 755 756 765 768 773 774 773 777 775 771 765 758 768 779 768 751 741 741 747 747 747 746 743 743 745 745 746 747 748 750 752 755 759 760 763 765 768 772 775 778 782 786 790 792 795 799 802 805 808 811 814 816 818 821 824 827 829 832 834 836 838 839 841 843 845 847 849 851 852 854 855 857 858 859 860 861 862 863 864 865 867 868 869 870 870 871 872 873 874 874 875 875 875 876 877 877
762 752 755 761 765 770 770 773 776 771 777 781 765 763 781 774 750 742 744 747 750 748 744 742 742 741 740 742 742 743 745 747 750 753 756 758 761 763 766 770 775 779 783 786 789 792 796 799 802 806 809 811 814 816 819 821 823 826 829 831 834 836 838 840 841 843 846 847 849 851 852 854 855 856 858 858 860 860 861 862 864 865 866 867 868 869 870 871 872 873 873 874 874 874 875 876 877
754 751 754 757 762 764 768 773 773 774 786 788 769 764 781 774 748 744 750 748 747 744 739 738 737 736 736 737 738 740 742 744 746 749 751 754 757 760 764 768 773 776 779 783 786 790 793 796 800 803 806 809 811 814 816 818 821 824 826 828 831 833 836 838 840 842 844 845 847 849 850 852 853 855 856 857 858 859 860 861 862 863 865 866 867 868 869 870 871 872 872 873 873 874 875 875 876
750 753 757 760 763 763 767 769 771 785 790 779 765 760 775 777 750 738 744 740 735 735 735 735 733 733 733 734 735 737 739 741 743 746 748 751 755 759 763 766 769 773 776 780 783 786 790 793 796 800 803 806 809 811 814 816 819 821 823 826 828 831 833 836 838 839 841 843 845 846 848 850 851 853 854 855 856 857 858 859 860 862 863 864 865 867 868 869 870 871 871 872 873 873 874 874 875
751 755 759 768 773 772 776 775 780 796 788 767 757 755 769 776 750 731 730 726 724 727 729 731 731 729 729 729 730 731 733 735 738 743 746 749 753 756 759 763 766 770 773 775 779 783 787 790 793 797 800 803 806 808 811 814 816 819 821 823 825 828 831 833 835 837 838 840 843 845 846 848 849 851 852 853 854 856 857 858 859 860 861 862 864 865 866 868 869 869 870 871 872 872 873 873 874
752 756 761 777 786 788 793 791 788 791 778 758 751 756 765 759 738 727 726 722 721 720 720 722 723 723 723 724 725 725 728 731 734 739 742 744 747 749 753 758 761 765 768 771 775 779 782 786 789 793 796 799 802 805 808 811 814 816 818 820 823 826 828 830 832 834 835 838 840 842 844 846 847 848 850 851 852 854 855 856 857 858 859 861 862 864 865 866 867 868 869 870 870 871 872 872 873
753 756 762 777 788 797 801 793 787 784 772 755 750 759 763 749 730 723 721 718 715 713 714 715 714 716 717 717 719 722 724 727 730 733 737 738 740 744 748 752 755 759 763 766 771 774 778 782 785 789 792 796 799 802 805 808 811 813 815 817 820 823 825 828 830 832 833 835 837 839 841 843 845 846 847 849 850 852 853 854 856 857 858 859 860 862 863 865 866 867 868 868 869 870 871 871 872
748 745 752 763 770 783 790 785 784 782 771 758 757 763 759 746 730 715 709 709 706 707 709 709 709 709 710 712 715 719 721 723 725 727 730 732 734 739 743 748 751 754 758 762 766 770 773 777 780 784 788 792 796 799 802 805 807 810 812 815 818 820 822 825 827 829 831 832 835 837 838 840 842 844 845 847 849 850 852 853 854 855 856 858 859 860 862 863 864 865 866 867 868 868 869 870 870
743 737 749 757 752 758 769 770 768 770 771 763 759 754 738 728 721 708 706 707 703 704 704 705 708 705 708 713 713 715 717 717 720 722 724 727 730 734 738 742 746 750 753 757 760 764 768 772 777 780 785 788 792 795 799 802 804 807 810 812 815 817 820 822 824 826 828 830 832 834 836 838 840 842 843 845 847 848 850 851 852 854 855 856 857 858 860 861 862 864 865 865 866 867 867 868 869
740 741 748 744 736 744 762 768 761 765 775 763 751 748 733 727 722 706 706 711 706 706 704 703 704 703 707 711 709 711 711 712 714 715 717 720 724 728 732 736 740 744 748 751 755 759 763 768 773 777 782 785 788 792 795 798 801 804 807 809 812 814 817 819 821 823 826 828 830 832 834 836 838 840 841 843 845 846 848 849 850 852 853 854 855 856 858 859 861 862 863 864 864 865 865 866 867
737 745 739 733 739 743 753 769 770 773 778 760 746 747 739 739 732 709 705 712 708 706 705 702 701 702 706 706 704 705 704 705 707 707 711 715 717 722 726 730 734 737 743 747 751 755 759 764 768 773 777 780 784 788 791 795 798 801 804 806 809 811 814 816 818 821 824 826 828 830 832 834 835 837 839 841 843 844 846 847 848 850 851 852 853 854 856 857 859 860 861 862 862 863 864 864 865
728 731 724 732 752 755 754 767 771 773 776 762 751 746 735 731 726 711 708 710 705 703 703 702 700 701 702 700 699 700 700 702 704 705 709 711 713 717 720 724 728 733 739 743 747 752 755 760 764 768 772 776 780 785 788 792 794 797 800 802 806 808 811 814 816 819 821 823 825 827 829 831 833 835 837 838 840 842 843 844 846 847 849 850 851 852 854 855 856 858 859 860 860 861 862 862 863
723 725 723 726 739 745 747 752 755 762 770 764 757 752 736 720 712 708 708 703 699 699 699 699 698 696 696 695 694 696 698 699 699 701 703 704 707 710 713 717 722 727 732 737 743 748 752 756 760 764 769 773 777 781 784 788 791 794 797 799 802 805 808 811 813 816 817 819 822 824 826 828 830 832 834 836 838 839 841 842 843 845 846 848 849 850 851 853 854 855 857 858 858 859 859 860 860
730 733 732 729 730 733 737 739 737 746 759 761 761 756 733 708 700 702 701 697 695 694 693 693 691 689 689 688 688 690 692 693 693 695 696 698 700 703 707 713 718 724 729 733 739 743 748 752 756 760 764 769 773 776 780 784 787 791 793 795 798 801 805 808 810 813 814 816 819 821 823 826 827 829 831 833 835 836 838 840 841 843 844 845 846 848 849 850 852 853 854 856 856 857 857 857 858
740 738 733 730 730 733 745 749 735 732 743 747 752 754 728 699 693 695 691 689 688 686 687 688 685 683 683 682 682 684 685 687 687 688 690 692 695 698 704 710 716 721 725 728 733 738 742 746 750 755 759 763 767 771 775 779 783 787 789 792 795 798 801 804 807 810 811 814 816 818 820 823 825 827 828 830 832 833 835 837 838 840 841 843 844 845 847 848 849 851 852 853 854 854 855 855 856